{"data":{"norad_id":46160,"intl_designator":"2020-057AV","name":"STARLINK-1598","alt_names":[],"object_type":"PAYLOAD","status":"ACTIVE","operator":null,"country":"US","launch_date":"2020-08-18","launch_site_code":"AFETR","launch_vehicle":null,"mission":null,"orbit_class":"UNKNOWN","rcs_meters":null,"size_class":null,"mass_kg":null,"dimensions":null,"purposes":["comms"],"wikipedia_slug":null,"has_3d_model":false,"image_url":null,"decayed_at":null,"tle_current":{"epoch":"2026-09-14T22:04:53.647968Z","epoch_age_seconds":504103,"freshness":"STALE","line1":"1 46160U 20057AV  26257.92006537  .05055375  12154-4  91799-3 0  9990","line2":"2 46160  53.0216  60.4662 0009657 294.1341  65.8692 16.31531862337602","mean_motion":16.31531862,"eccentricity":0.0009657,"inclination_deg":53.0216,"raan_deg":60.4662,"arg_perigee_deg":294.1341,"mean_anomaly_deg":65.8692,"bstar":0.00091799,"rev_number":33760,"period_min":88.26061160919,"perigee_km":182.08496809125,"apogee_km":194.76762844553,"semimajor_km":6566.5632982684,"source":"CELESTRAK","updated_at":"2026-09-15T09:00:52.791045Z"}}}